Regional Weather Roundup
Issued by NWS

Home | Current Version | Previous Version | Graphics & Text | Print | Product List | Glossary On
Versions: 1 2 3 4 5 6 7 8 9 10 11 12 13 14 15 16 17 18 19 20 21 22 23 24 25 26 27 28 29 30 31 32 33 34 35 36 37 38 39 40 41 42 43 44 45 46 47 48 49 50
000
ASUS45 KTFX 211019
RWRMT
MONTANA HOURLY WEATHER ROUNDUP
NATIONAL WEATHER SERVICE GREAT FALLS MT
419 AM MDT TUE OCT 21 2014

NOTE: "FAIR" INDICATES FEW OR NO CLOUDS BELOW 12000 FEET WITH NO
SIGNIFICANT WEATHER AND/OR OBSTRUCTIONS TO VISIBILITY.

* THESE STATIONS ARE NOT UNDER NWS QUALITY CONTROL. THEY DO NOT
   REPORT WEATHER SUCH AS PRECIPITATION OR FOG.

MTZ001>007-043-211100-
WEST OF THE DIVIDE
CITY           SKY/WX    TMP DP  RH WIND       PRES   REMARKS
KALISPELL      CLOUDY    43  39  86 CALM      29.74F
MISSOULA       MOCLDY    54  37  53 W9        29.76R
BUTTE          MOCLDY    46  34  63 SW3       29.80F
MULLAN PASS    FOG       37  37 100 VRB6      29.87R VSB M1/4 WCI  32
* ESSEX        N/A       41  35  79 E1         N/A
* LINCOLN      N/A       33  29  85 E3         N/A
* POLSON       N/A       50  38  64 SE1        N/A
* RONAN APT    MOCLDY    54  43  67 E5         N/A
* SEELEY LAKE  N/A       43  35  73 SW3G8      N/A
* THOMP F APT  MOCLDY    52  32  47 S2G11      N/A
$$

MTZ008-052>055-211100-
SOUTHWEST MONTANA
CITY           SKY/WX    TMP DP  RH WIND       PRES   REMARKS
BOZEMAN        PTCLDY    45  36  71 N8        29.76F
DILLON         PTCLDY    50  36  59 S7        29.79F
W YELLOWSTONE  PTCLDY    27  27 100 CALM      29.93F
* THREE FORKS  PTCLDY    45  45 100 N/A        N/A
* BOULDER HILL N/A       53  29  40 S6         N/A
* MONIDA PASS  N/A       46  33  61 SE4G9      N/A
* RAYNOLDS PAS N/A       48  30  50 S12        N/A
* WHITEHALL    N/A       47  33  58 N8         N/A
* WISE RIVER   N/A       37  27  67 E3G11      N/A
$$

MTZ009>010-012-014-046-048-049-054-211100-
EAST SLOPES AND CENTRAL MONTANA
CITY           SKY/WX    TMP DP  RH WIND       PRES   REMARKS
CUT BANK       MOCLDY    46  32  58 NW6       29.68S
GREAT FALLS    PTCLDY    57  36  46 S12       29.67S
HELENA         CLEAR     50  36  59 S3        29.72S
MALMSTROM AFB  PTCLDY    57  36  46 SW12      29.67F
* CONRAD       PTCLDY    39  34  82 S5         N/A   WCI  35
* DEARBORN     N/A       42  36  79 S1         N/A
* EAST GLACIER N/A       55  30  39 SW4G9      N/A
* MONARCH      N/A       52  29  41 S8         N/A
* PENDROY      N/A       55  33  43 N6         N/A
* ROGERS PASS  N/A       52  30  43 SW2        N/A
* SAINT MARY   N/A       42  31  65 S4         N/A
* SWEET GRASS  N/A       61  26  26 SW7        N/A
* WHITE SULPH  N/A       45  32  60 E9G14      N/A
$$

MTZ011-013-016-021-035-040-045-047-050-051-211100-
NORTH CENTRAL MONTANA
CITY           SKY/WX    TMP DP  RH WIND       PRES   REMARKS
HAVRE          CLEAR     37  36  96 W6        29.64F WCI  32
LEWISTOWN      CLEAR     57  36  46 S13       29.73F
* CHINOOK      CLEAR     46  39  77 E8        29.63F
* FORT BENTON  CLEAR     43  32  65 CALM      29.65S
* CHESTER      N/A       40  29  65 N2         N/A
* DENTON       N/A       48  36  63 SE11       N/A
* GEYSER       N/A       59  36  42 S14        N/A
* JUDITH GAP   N/A       46  36  68 S4         N/A
* LOMA         N/A       49  36  61 NE8        N/A
$$

MTZ017>020-022>027-061-062-211100-
NORTHEAST MONTANA
CITY           SKY/WX    TMP DP  RH WIND       PRES   REMARKS
GLASGOW        CLEAR     46  37  71 E13       29.69F
GLENDIVE       CLEAR     45  37  74 NE3       29.76F
JORDAN         CLEAR     37  30  76 CALM      29.71F
SIDNEY         CLEAR     37  36  96 NW5       29.77F WCI  33
WOLF POINT     CLEAR     37  34  89 E7        29.73F WCI  32
* BEAVER HILL  N/A       50  41  71 SE9        N/A
* CIRCLE       N/A       53  41  64 N/A        N/A
* LINDSAY DVD  N/A       51  41  69 N/A        N/A
* NAVAJO       N/A       46  39  77 SW8        N/A
$$

MTZ028>042-056>058-211100-
SOUTHCENTRAL AND SOUTHEAST MONTANA
CITY           SKY/WX    TMP DP  RH WIND       PRES   REMARKS
BAKER          CLEAR     45  39  80 E10       29.78F
BILLINGS       CLEAR     52  28  40 SW12      29.76F
LIVINGSTON     CLEAR     46  34  63 S5        29.78F
MILES CITY     CLEAR     45  37  74 SE3       29.74F
* LAUREL APT   CLEAR     48  28  46 N/A        N/A
* ROUNDUP APT  CLEAR     48  28  46 N/A        N/A
* ALZADA       N/A       48  39  71 E4         N/A
* HYSHAM       N/A       59  27  29 NW3        N/A
* LAME DEER    N/A       61  35  38 N/A        N/A
* REED POINT   N/A       36  33  89 N1         N/A
* ROSCOE HILL  N/A       58  23  26 S2G7       N/A
$$

REGIONAL REPORTS...DAKOTAS
CITY           SKY/WX    TMP DP  RH WIND       PRES   REMARKS
WILLISTON      CLEAR     39  37  93 CALM      29.77F
DICKINSON      CLEAR     41  36  82 SE8       29.78F
BEACH          N/A       41  41 100 SE8       29.78F
CROSBY         CLEAR     50  39  66 S15       29.77F
TIOGA          CLEAR     43  39  86 SE8       29.83F
BISMARCK       CLEAR     54  36  51 SE13      29.87F
GRAND FORKS    CLEAR     39  36  89 SE12      30.03F WCI  32
FARGO          CLEAR     45  37  74 SE15      30.05S
BUFFALO SD     CLEAR     48  39  71 CALM      29.74F
RAPID CITY     CLEAR     48  39  71 SE5       29.85S
$$

REGIONAL REPORTS...WYOMING/IDAHO/WASHINGTON
CITY           SKY/WX    TMP DP  RH WIND       PRES   REMARKS
GILLETTE       CLEAR     59  34  39 S21G30    29.83F
SHERIDAN       CLEAR     37  30  76 CALM      29.80F
CODY           CLEAR    N/A N/A N/A SW9G17    29.85F
YELLOWSTONE LA PTCLDY    28  27  96 NW3       30.02F
SALMON         MOCLDY    50  37  61 SE8       29.72F
MULLAN PASS    FOG       37  37 100 VRB6      29.87S VSB M1/4 WCI  32
SAND POINT     LGT RAIN  52  43  72 SW7       29.82R
SPOKANE        CLOUDY    48  45  89 S7        29.84F
$$

REGIONAL REPORTS...ALBERTA
CITY           SKY/WX    TMP DP  RH WIND       PRES   REMARKS
CALGARY        PTCLDY    45  32  60 N6        29.62R
LETHBRIDGE     MOCLDY    46  36  68 VRB2      29.65S
MEDICINE HAT   CLEAR     41  36  82 S7        29.63F
EDMONTON       MOCLDY    37  34  89 SW5       29.57S WCI  33
WATERTON GATE  N/A       37  32  82 W2         N/A
CARDSTON       N/A       46  36  68 S6         N/A
MILK RIVER     N/A       41  32  70 NW5        N/A
$$

REGIONAL REPORTS...SASKATCHEWAN
CITY           SKY/WX    TMP DP  RH WIND       PRES   REMARKS
SWIFT CURRENT  CLEAR     48  39  71 S9        29.66S
MOOSE JAW      N/A       39  37  93 E8        29.67F WCI  33
REGINA         N/A       45  41  86 SE13      29.71F
VAL MARIE      N/A       36  34  92 NE5        N/A   WCI  32
ASSINIBOIA     N/A       43  36  76 SE7        N/A
CORONACH       N/A       37  36  96 SE3        N/A

$$



USA.gov is the U.S. government's official web portal to all federal, state and local government web resources and services.